| time (UTC) | temp F | wind direction | speed MPH | gust MPH | rain 1hr in | rain 24hr in | rain mn in | humidity % | barometer mb |
| 20260506102144 | 61 | 119 | 0.0 | 0.0 | 0.00 | 0.00 | 0.00 | 83 | 1012.4 |
| 20260506101641 | 61 | 122 | 0.0 | 0.0 | 0.00 | 0.00 | 0.00 | 82 | 1012.5 |
| 20260506101138 | 61 | 124 | 0.0 | 0.0 | 0.00 | 0.00 | 0.00 | 82 | 1012.2 |
| 20260506100636 | 61 | 126 | 0.0 | 1.0 | 0.00 | 0.00 | 0.00 | 82 | 1012.3 |
| 20260506100134 | 61 | 128 | 0.0 | 1.0 | 0.00 | 0.00 | 0.00 | 81 | 1012.6 |
| 20260506095632 | 61 | 126 | 0.0 | 1.0 | 0.00 | 0.00 | 0.00 | 81 | 1012.6 |
| 20260506095129 | 62 | 124 | 1.0 | 1.0 | 0.00 | 0.00 | 0.00 | 81 | 1012.6 |
| 20260506094626 | 61 | 122 | 0.0 | 0.0 | 0.00 | 0.00 | 0.00 | 81 | 1012.8 |
| 20260506094124 | 61 | 121 | 0.0 | 0.0 | 0.00 | 0.00 | 0.00 | 81 | 1012.9 |
| 20260506093622 | 62 | 123 | 0.0 | 1.0 | 0.00 | 0.00 | 0.00 | 81 | 1012.8 |
| 20260506093119 | 62 | 124 | 0.0 | 0.0 | 0.00 | 0.00 | 0.00 | 80 | 1012.8 |
| 20260506092617 | 62 | 123 | 0.0 | 1.0 | 0.00 | 0.00 | 0.00 | 80 | 1012.6 |
| 20260506092113 | 62 | 125 | 0.0 | 0.0 | 0.00 | 0.00 | 0.00 | 80 | 1012.8 |
| 20260506091612 | 62 | 126 | 0.0 | 1.0 | 0.00 | 0.00 | 0.00 | 81 | 1012.7 |
| 20260506091109 | 62 | 124 | 0.0 | 1.0 | 0.00 | 0.00 | 0.00 | 81 | 1012.8 |
| 20260506090607 | 62 | 121 | 0.0 | 1.0 | 0.00 | 0.00 | 0.00 | 81 | 1013.0 |
| 20260506085600 | 61 | 120 | 0.0 | 1.0 | 0.00 | 0.00 | 0.00 | 82 | 1012.9 |
| 20260506085056 | 61 | 124 | 1.0 | 1.0 | 0.00 | 0.00 | 0.00 | 82 | 1013.0 |
| 20260506084553 | 61 | 93 | 0.0 | 1.0 | 0.00 | 0.00 | 0.00 | 82 | 1013.4 |
| 20260506084049 | 61 | 122 | 0.0 | 1.0 | 0.00 | 0.00 | 0.00 | 81 | 1013.2 |
| 20260506083547 | 62 | 121 | 0.0 | 1.0 | 0.00 | 0.00 | 0.00 | 81 | 1013.2 |
| 20260506083044 | 62 | 118 | 0.0 | 1.0 | 0.00 | 0.00 | 0.00 | 81 | 1013.0 |
| 20260506082540 | 62 | 127 | 0.0 | 0.0 | 0.00 | 0.00 | 0.00 | 80 | 1013.5 |
| 20260506082036 | 62 | 129 | 0.0 | 0.0 | 0.00 | 0.00 | 0.00 | 80 | 1013.2 |
| 20260506081535 | 62 | 129 | 0.0 | 1.0 | 0.00 | 0.00 | 0.00 | 80 | 1013.5 |
| 20260506081032 | 62 | 130 | 0.0 | 0.0 | 0.00 | 0.00 | 0.00 | 80 | 1013.4 |
| 20260506080529 | 62 | 126 | 0.0 | 0.0 | 0.00 | 0.00 | 0.00 | 80 | 1013.6 |
| 20260506073513 | 62 | 129 | 1.0 | 1.0 | 0.00 | 0.00 | 0.00 | 80 | 1013.6 |
| 20260506073010 | 62 | 117 | 0.0 | 1.0 | 0.00 | 0.00 | 0.00 | 80 | 1013.3 |
| 20260506072507 | 62 | 117 | 0.0 | 1.0 | 0.00 | 0.00 | 0.00 | 80 | 1013.7 |
| 20260506072004 | 62 | 121 | 0.0 | 1.0 | 0.00 | 0.00 | 0.00 | 80 | 1013.7 |
| 20260506071502 | 61 | 113 | 0.0 | 0.0 | 0.00 | 0.00 | 0.00 | 81 | 1013.8 |
| 20260506070959 | 61 | 113 | 0.0 | 0.0 | 0.00 | 0.00 | 0.00 | 82 | 1013.6 |
| 20260506070456 | 61 | 112 | 0.0 | 1.0 | 0.00 | 0.00 | 0.00 | 81 | 1013.4 |
| 20260506062434 | 62 | 117 | 0.0 | 0.0 | 0.00 | 0.00 | 0.00 | 79 | 1013.7 |
| 20260506061929 | 62 | 114 | 0.0 | 0.0 | 0.00 | 0.00 | 0.00 | 79 | 1013.7 |
| 20260506061426 | 62 | 120 | 0.0 | 0.0 | 0.00 | 0.00 | 0.00 | 78 | 1013.8 |
| 20260506060924 | 62 | 120 | 0.0 | 1.0 | 0.00 | 0.00 | 0.00 | 78 | 1014.0 |
| 20260506060422 | 62 | 120 | 0.0 | 0.0 | 0.00 | 0.00 | 0.00 | 77 | 1013.6 |
| 20260506051354 | 64 | 128 | 0.0 | 1.0 | 0.00 | 0.00 | 0.00 | 73 | 1014.0 |
| 20260506050851 | 64 | 128 | 0.0 | 0.0 | 0.00 | 0.00 | 0.00 | 73 | 1013.7 |
| 20260506050349 | 64 | 135 | 0.0 | 1.0 | 0.00 | 0.00 | 0.00 | 73 | 1013.6 |
| 20260506044839 | 65 | 126 | 1.0 | 1.0 | 0.00 | 0.00 | 0.00 | 72 | 1014.0 |
| 20260506044337 | 65 | 151 | 2.0 | 2.0 | 0.00 | 0.00 | 0.00 | 72 | 1013.8 |
| 20260506043834 | 65 | 133 | 1.0 | 2.0 | 0.00 | 0.00 | 0.00 | 71 | 1013.8 |
| 20260506043331 | 65 | 135 | 0.0 | 1.0 | 0.00 | 0.00 | 0.00 | 71 | 1013.8 |
| 20260506042829 | 65 | 132 | 0.0 | 0.0 | 0.00 | 0.00 | 0.00 | 71 | 1013.8 |
| 20260506042328 | 65 | 133 | 0.0 | 1.0 | 0.00 | 0.00 | 0.00 | 70 | 1013.8 |
| 20260506041827 | 65 | 133 | 0.0 | 1.0 | 0.00 | 0.00 | 0.00 | 70 | 1013.6 |
| 20260506041323 | 65 | 133 | 1.0 | 1.0 | 0.00 | 0.00 | 0.00 | 69 | 1013.7 |
| 20260506040820 | 65 | 133 | 1.0 | 1.0 | 0.00 | 0.00 | 0.00 | 69 | 1013.8 |
| 20260506040318 | 66 | 133 | 1.0 | 1.0 | 0.00 | 0.00 | 0.00 | 69 | 1013.6 |
| 20260506035814 | 66 | 130 | 0.0 | 1.0 | 0.00 | 0.00 | 0.00 | 68 | 1013.4 |
| 20260506035311 | 66 | 129 | 0.0 | 1.0 | 0.00 | 0.00 | 0.00 | 68 | 1013.5 |
| 20260506034808 | 65 | 129 | 0.0 | 0.0 | 0.00 | 0.00 | 0.00 | 67 | 1013.9 |
| 20260506034305 | 66 | 129 | 0.0 | 1.0 | 0.00 | 0.00 | 0.00 | 67 | 1013.7 |
| 20260506033802 | 66 | 131 | 0.0 | 1.0 | 0.00 | 0.00 | 0.00 | 65 | 1013.7 |
| 20260506033259 | 66 | 129 | 1.0 | 2.0 | 0.00 | 0.00 | 0.00 | 64 | 1013.6 |
| 20260506032756 | 66 | 128 | 0.0 | 1.0 | 0.00 | 0.00 | 0.00 | 64 | 1013.6 |
| 20260506032253 | 66 | 128 | 1.0 | 1.0 | 0.00 | 0.00 | 0.00 | 63 | 1013.7 |
| 20260506031749 | 65 | 127 | 1.0 | 2.0 | 0.00 | 0.00 | 0.00 | 64 | 1013.2 |
| 20260506031247 | 62 | 122 | 0.0 | 0.0 | 0.00 | 0.00 | 0.00 | 68 | 1013.5 |
| 20260506030745 | 62 | 121 | 0.0 | 0.0 | 0.00 | 0.00 | 0.00 | 72 | 1013.3 |
| 20260506030243 | 62 | 121 | 0.0 | 0.0 | 0.00 | 0.00 | 0.00 | 71 | 1013.5 |
| 20260506025739 | 62 | 121 | 0.0 | 0.0 | 0.00 | 0.00 | 0.00 | 71 | 1013.3 |
| 20260506025235 | 62 | 121 | 0.0 | 0.0 | 0.00 | 0.00 | 0.00 | 71 | 1013.3 |
| 20260506024733 | 63 | 121 | 0.0 | 0.0 | 0.00 | 0.00 | 0.00 | 72 | 1013.2 |
| 20260506024229 | 63 | 121 | 0.0 | 0.0 | 0.00 | 0.00 | 0.00 | 72 | 1013.3 |
| 20260506023725 | 63 | 121 | 0.0 | 0.0 | 0.00 | 0.00 | 0.00 | 73 | 1013.4 |
| 20260506023223 | 63 | 121 | 0.0 | 0.0 | 0.00 | 0.00 | 0.00 | 70 | 1013.3 |
| 20260506022719 | 63 | 121 | 0.0 | 0.0 | 0.00 | 0.00 | 0.00 | 73 | 1013.3 |
| 20260506022217 | 63 | 121 | 0.0 | 0.0 | 0.00 | 0.00 | 0.00 | 71 | 1013.5 |
| 20260506021715 | 63 | 121 | 0.0 | 0.0 | 0.00 | 0.00 | 0.00 | 71 | 1013.4 |
| 20260506021212 | 63 | 121 | 0.0 | 0.0 | 0.00 | 0.00 | 0.00 | 71 | 1013.4 |
| 20260506020708 | 63 | 121 | 0.0 | 0.0 | 0.00 | 0.00 | 0.00 | 71 | 1013.2 |
| 20260506020206 | 63 | 121 | 0.0 | 0.0 | 0.00 | 0.00 | 0.00 | 72 | 1013.5 |
| 20260506015704 | 63 | 121 | 0.0 | 0.0 | 0.00 | 0.00 | 0.00 | 71 | 1013.5 |
| 20260506015201 | 63 | 121 | 0.0 | 0.0 | 0.00 | 0.00 | 0.00 | 71 | 1013.5 |
| 20260506014658 | 63 | 121 | 0.0 | 0.0 | 0.00 | 0.00 | 0.00 | 69 | 1013.3 |
| 20260506014154 | 63 | 121 | 0.0 | 0.0 | 0.00 | 0.00 | 0.00 | 71 | 1013.5 |
| 20260506013652 | 64 | 121 | 0.0 | 0.0 | 0.00 | 0.00 | 0.00 | 70 | 1013.5 |
| 20260506013149 | 64 | 121 | 0.0 | 0.0 | 0.00 | 0.00 | 0.00 | 68 | 1013.6 |
| 20260506012645 | 64 | 121 | 0.0 | 0.0 | 0.00 | 0.00 | 0.00 | 67 | 1013.4 |
| 20260506012142 | 65 | 121 | 0.0 | 0.0 | 0.00 | 0.00 | 0.00 | 68 | 1013.3 |
| 20260506011639 | 65 | 121 | 0.0 | 0.0 | 0.00 | 0.00 | 0.00 | 66 | 1013.2 |
| 20260506011135 | 66 | 121 | 0.0 | 0.0 | 0.00 | 0.00 | 0.00 | 63 | 1013.2 |
| 20260506010634 | 66 | 121 | 0.0 | 0.0 | 0.00 | 0.00 | 0.00 | 61 | 1013.3 |
| 20260506010131 | 67 | 121 | 0.0 | 0.0 | 0.00 | 0.00 | 0.00 | 61 | 1012.9 |
| 20260506005628 | 67 | 121 | 0.0 | 0.0 | 0.00 | 0.00 | 0.00 | 60 | 1013.0 |
| 20260506005124 | 68 | 121 | 0.0 | 0.0 | 0.00 | 0.00 | 0.00 | 59 | 1013.0 |
| 20260506004621 | 68 | 121 | 0.0 | 0.0 | 0.00 | 0.00 | 0.00 | 58 | 1013.2 |
| 20260506004118 | 68 | 121 | 0.0 | 0.0 | 0.00 | 0.00 | 0.00 | 58 | 1012.8 |
| 20260506003614 | 69 | 121 | 0.0 | 0.0 | 0.00 | 0.00 | 0.00 | 57 | 1013.0 |
| 20260506003110 | 69 | 121 | 0.0 | 0.0 | 0.00 | 0.00 | 0.00 | 56 | 1012.9 |
| 20260506002606 | 70 | 121 | 0.0 | 0.0 | 0.00 | 0.00 | 0.00 | 55 | 1012.7 |
| 20260506002102 | 70 | 121 | 0.0 | 0.0 | 0.00 | 0.00 | 0.00 | 54 | 1012.7 |
| 20260506001559 | 71 | 121 | 0.0 | 0.0 | 0.00 | 0.00 | 0.00 | 53 | 1012.7 |
| 20260506001056 | 71 | 121 | 0.0 | 0.0 | 0.00 | 0.00 | 0.00 | 52 | 1012.7 |
| 20260506000554 | 72 | 121 | 0.0 | 0.0 | 0.00 | 0.00 | 0.00 | 51 | 1012.6 |
| 20260506000051 | 73 | 121 | 0.0 | 0.0 | 0.00 | 0.00 | 0.00 | 50 | 1012.8 |
| 20260505235549 | 73 | 121 | 0.0 | 0.0 | 0.00 | 0.00 | 0.00 | 50 | 1012.6 |
| 20260505235046 | 74 | 121 | 0.0 | 0.0 | 0.00 | 0.00 | 0.00 | 48 | 1012.7 |
| 20260505234543 | 75 | 122 | 0.0 | 0.0 | 0.00 | 0.00 | 0.00 | 47 | 1012.6 |
| 20260505234039 | 75 | 121 | 0.0 | 0.0 | 0.00 | 0.00 | 0.00 | 46 | 1012.6 |
| 20260505233537 | 75 | 122 | 0.0 | 0.0 | 0.00 | 0.00 | 0.00 | 45 | 1012.5 |
| 20260505233034 | 75 | 119 | 1.0 | 1.0 | 0.00 | 0.00 | 0.00 | 46 | 1012.7 |
| 20260505232532 | 76 | 126 | 0.0 | 1.0 | 0.00 | 0.00 | 0.00 | 44 | 1012.6 |
| 20260505232029 | 76 | 124 | 1.0 | 1.0 | 0.00 | 0.00 | 0.00 | 44 | 1012.4 |
| 20260505231526 | 76 | 134 | 0.0 | 2.0 | 0.00 | 0.00 | 0.00 | 44 | 1012.5 |
| 20260505231025 | 76 | 127 | 0.0 | 2.0 | 0.00 | 0.00 | 0.00 | 43 | 1012.3 |
| 20260505230521 | 77 | 128 | 0.0 | 1.0 | 0.00 | 0.00 | 0.00 | 43 | 1012.5 |
| 20260505230018 | 77 | 118 | 2.0 | 3.0 | 0.00 | 0.00 | 0.00 | 42 | 1012.5 |
| 20260505225515 | 77 | 119 | 0.0 | 1.0 | 0.00 | 0.00 | 0.00 | 43 | 1012.7 |
| 20260505225011 | 77 | 116 | 0.0 | 1.0 | 0.00 | 0.00 | 0.00 | 42 | 1012.8 |
| 20260505224508 | 77 | 162 | 2.0 | 2.0 | 0.00 | 0.00 | 0.00 | 42 | 1012.8 |
| 20260505224005 | 77 | 128 | 0.0 | 1.0 | 0.00 | 0.00 | 0.00 | 43 | 1012.8 |
| 20260505223502 | 77 | 100 | 1.0 | 2.0 | 0.00 | 0.00 | 0.00 | 42 | 1012.9 |
| 20260505222958 | 78 | 119 | 0.0 | 1.0 | 0.00 | 0.00 | 0.00 | 41 | 1012.7 |
| 20260505222455 | 78 | 115 | 1.0 | 5.0 | 0.00 | 0.00 | 0.00 | 42 | 1012.8 |
| 20260505221950 | 78 | 142 | 1.0 | 3.0 | 0.00 | 0.00 | 0.00 | 43 | 1012.6 |
| 20260505221448 | 78 | 130 | 0.0 | 2.0 | 0.00 | 0.00 | 0.00 | 42 | 1012.4 |
| 20260505220945 | 78 | 130 | 1.0 | 2.0 | 0.00 | 0.00 | 0.00 | 42 | 1012.8 |
| 20260505220442 | 78 | 138 | 1.0 | 2.0 | 0.00 | 0.00 | 0.00 | 42 | 1012.7 |
| 20260505215940 | 78 | 124 | 1.0 | 2.0 | 0.00 | 0.00 | 0.00 | 40 | 1012.8 |
| 20260505215438 | 78 | 73 | 1.0 | 2.0 | 0.00 | 0.00 | 0.00 | 41 | 1012.7 |
| 20260505214935 | 77 | 120 | 0.0 | 1.0 | 0.00 | 0.00 | 0.00 | 43 | 1012.8 |
| 20260505214433 | 78 | 131 | 0.0 | 2.0 | 0.00 | 0.00 | 0.00 | 42 | 1012.9 |
| 20260505213930 | 78 | 148 | 1.0 | 2.0 | 0.00 | 0.00 | 0.00 | 41 | 1012.9 |
| 20260505213427 | 78 | 128 | 2.0 | 6.0 | 0.00 | 0.00 | 0.00 | 44 | 1012.8 |
| 20260505212923 | 78 | 134 | 0.0 | 1.0 | 0.00 | 0.00 | 0.00 | 43 | 1012.9 |
| 20260505212421 | 78 | 122 | 0.0 | 3.0 | 0.00 | 0.00 | 0.00 | 43 | 1013.0 |
| 20260505211917 | 77 | 119 | 0.0 | 2.0 | 0.00 | 0.00 | 0.00 | 42 | 1012.9 |
| 20260505211415 | 77 | 160 | 1.0 | 2.0 | 0.00 | 0.00 | 0.00 | 43 | 1013.0 |
| 20260505210910 | 77 | 122 | 0.0 | 1.0 | 0.00 | 0.00 | 0.00 | 43 | 1013.3 |
| 20260505210408 | 78 | 126 | 1.0 | 5.0 | 0.00 | 0.00 | 0.00 | 42 | 1013.0 |
| 20260505205905 | 78 | 135 | 1.0 | 1.0 | 0.00 | 0.00 | 0.00 | 42 | 1013.0 |
| 20260505205403 | 79 | 139 | 1.0 | 5.0 | 0.00 | 0.00 | 0.00 | 42 | 1013.3 |
| 20260505204900 | 79 | 167 | 2.0 | 5.0 | 0.00 | 0.00 | 0.00 | 42 | 1013.4 |
| 20260505204357 | 79 | 133 | 1.0 | 2.0 | 0.00 | 0.00 | 0.00 | 41 | 1013.3 |
| 20260505203855 | 79 | 156 | 1.0 | 3.0 | 0.00 | 0.00 | 0.00 | 43 | 1013.3 |
| 20260505203351 | 80 | 151 | 1.0 | 5.0 | 0.00 | 0.00 | 0.00 | 42 | 1013.4 |
| 20260505202847 | 80 | 133 | 1.0 | 3.0 | 0.00 | 0.00 | 0.00 | 41 | 1013.5 |
| 20260505202343 | 80 | 116 | 0.0 | 3.0 | 0.00 | 0.00 | 0.00 | 41 | 1013.5 |
| 20260505201840 | 79 | 67 | 2.0 | 3.0 | 0.00 | 0.00 | 0.00 | 44 | 1013.6 |
| 20260505201337 | 79 | 125 | 0.0 | 1.0 | 0.00 | 0.00 | 0.00 | 42 | 1013.5 |
| 20260505200836 | 79 | 119 | 1.0 | 2.0 | 0.00 | 0.00 | 0.00 | 43 | 1013.9 |
| 20260505200332 | 79 | 154 | 1.0 | 2.0 | 0.00 | 0.00 | 0.00 | 41 | 1013.8 |
| 20260505195828 | 80 | 166 | 1.0 | 2.0 | 0.00 | 0.00 | 0.00 | 41 | 1014.0 |
| 20260505195325 | 80 | 144 | 2.0 | 5.0 | 0.00 | 0.00 | 0.00 | 41 | 1013.8 |
| 20260505194822 | 79 | 139 | 1.0 | 2.0 | 0.00 | 0.00 | 0.00 | 41 | 1013.7 |
| 20260505194320 | 80 | 154 | 2.0 | 5.0 | 0.00 | 0.00 | 0.00 | 41 | 1013.9 |
| 20260505193814 | 79 | 131 | 1.0 | 1.0 | 0.00 | 0.00 | 0.00 | 41 | 1013.8 |
| 20260505193313 | 78 | 136 | 1.0 | 6.0 | 0.00 | 0.00 | 0.00 | 41 | 1014.1 |
| 20260505192810 | 80 | 142 | 1.0 | 2.0 | 0.00 | 0.00 | 0.00 | 38 | 1014.2 |
| 20260505192310 | 80 | 117 | 0.0 | 6.0 | 0.00 | 0.00 | 0.00 | 42 | 1014.2 |
| 20260505191806 | 80 | 137 | 1.0 | 6.0 | 0.00 | 0.00 | 0.00 | 39 | 1014.5 |
| 20260505191304 | 79 | 114 | 3.0 | 3.0 | 0.00 | 0.00 | 0.00 | 41 | 1014.4 |
| 20260505190800 | 79 | 129 | 0.0 | 3.0 | 0.00 | 0.00 | 0.00 | 43 | 1014.3 |
| 20260505190255 | 79 | 129 | 1.0 | 5.0 | 0.00 | 0.00 | 0.00 | 42 | 1014.4 |
| 20260505185752 | 80 | 84 | 3.0 | 5.0 | 0.00 | 0.00 | 0.00 | 39 | 1014.7 |
| 20260505185248 | 80 | 88 | 2.0 | 3.0 | 0.00 | 0.00 | 0.00 | 38 | 1014.6 |
| 20260505184744 | 81 | 102 | 1.0 | 3.0 | 0.00 | 0.00 | 0.00 | 38 | 1014.7 |
| 20260505184242 | 81 | 120 | 2.0 | 11.0 | 0.00 | 0.00 | 0.00 | 40 | 1014.7 |
| 20260505183738 | 79 | 141 | 1.0 | 2.0 | 0.00 | 0.00 | 0.00 | 41 | 1014.8 |
| 20260505183236 | 80 | 342 | 3.0 | 10.0 | 0.00 | 0.00 | 0.00 | 41 | 1014.9 |
| 20260505182732 | 81 | 107 | 3.0 | 5.0 | 0.00 | 0.00 | 0.00 | 41 | 1015.0 |
| 20260505182229 | 80 | 38 | 3.0 | 3.0 | 0.00 | 0.00 | 0.00 | 41 | 1015.1 |
| 20260505181725 | 79 | 116 | 0.0 | 7.0 | 0.00 | 0.00 | 0.00 | 45 | 1015.3 |
| 20260505181224 | 80 | 126 | 1.0 | 8.0 | 0.00 | 0.00 | 0.00 | 42 | 1015.1 |
| 20260505180720 | 80 | 132 | 2.0 | 6.0 | 0.00 | 0.00 | 0.00 | 42 | 1015.3 |
| 20260505180217 | 80 | 115 | 3.0 | 5.0 | 0.00 | 0.00 | 0.00 | 42 | 1015.3 |
| 20260505175713 | 79 | 145 | 1.0 | 8.0 | 0.00 | 0.00 | 0.00 | 46 | 1015.3 |
| 20260505175209 | 78 | 286 | 3.0 | 6.0 | 0.00 | 0.00 | 0.00 | 44 | 1015.4 |
| 20260505174706 | 78 | 124 | 0.0 | 2.0 | 0.00 | 0.00 | 0.00 | 44 | 1015.6 |
| 20260505174203 | 78 | 128 | 1.0 | 6.0 | 0.00 | 0.00 | 0.00 | 45 | 1015.4 |
| 20260505173659 | 80 | 139 | 1.0 | 2.0 | 0.00 | 0.00 | 0.00 | 43 | 1015.6 |
| 20260505173156 | 79 | 107 | 1.0 | 5.0 | 0.00 | 0.00 | 0.00 | 45 | 1015.4 |
| 20260505172653 | 79 | 214 | 3.0 | 5.0 | 0.00 | 0.00 | 0.00 | 43 | 1015.4 |
| 20260505172150 | 78 | 140 | 1.0 | 2.0 | 0.00 | 0.00 | 0.00 | 42 | 1015.4 |
| 20260505171649 | 78 | 143 | 2.0 | 3.0 | 0.00 | 0.00 | 0.00 | 44 | 1015.4 |
| 20260505171147 | 77 | 176 | 3.0 | 6.0 | 0.00 | 0.00 | 0.00 | 44 | 1015.6 |
| 20260505170644 | 77 | 130 | 0.0 | 2.0 | 0.00 | 0.00 | 0.00 | 45 | 1015.3 |
| 20260505170140 | 77 | 351 | 5.0 | 7.0 | 0.00 | 0.00 | 0.00 | 45 | 1015.5 |
| 20260505165635 | 78 | 116 | 2.0 | 10.0 | 0.00 | 0.00 | 0.00 | 46 | 1015.6 |
| 20260505165131 | 78 | 120 | 1.0 | 3.0 | 0.00 | 0.00 | 0.00 | 42 | 1015.6 |
| 20260505164626 | 77 | 156 | 2.0 | 2.0 | 0.00 | 0.00 | 0.00 | 44 | 1015.6 |
| 20260505164125 | 77 | 149 | 2.0 | 3.0 | 0.00 | 0.00 | 0.00 | 45 | 1015.8 |
| 20260505163623 | 77 | 131 | 2.0 | 3.0 | 0.00 | 0.00 | 0.00 | 45 | 1015.6 |
| 20260505163120 | 77 | 192 | 1.0 | 2.0 | 0.00 | 0.00 | 0.00 | 50 | 1015.9 |
| 20260505162617 | 76 | 116 | 1.0 | 5.0 | 0.00 | 0.00 | 0.00 | 49 | 1015.8 |
| 20260505162115 | 77 | 359 | 3.0 | 5.0 | 0.00 | 0.00 | 0.00 | 52 | 1015.7 |
| 20260505161612 | 77 | 110 | 1.0 | 2.0 | 0.00 | 0.00 | 0.00 | 51 | 1016.0 |
| 20260505161109 | 76 | 119 | 0.0 | 3.0 | 0.00 | 0.00 | 0.00 | 56 | 1016.1 |
| 20260505160607 | 75 | 339 | 3.0 | 6.0 | 0.00 | 0.00 | 0.00 | 53 | 1016.2 |
| 20260505160104 | 75 | 130 | 1.0 | 1.0 | 0.00 | 0.00 | 0.00 | 54 | 1016.4 |
| 20260505153043 | 73 | 136 | 1.0 | 2.0 | 0.00 | 0.00 | 0.00 | 59 | 1016.8 |
| 20260505152540 | 73 | 131 | 0.0 | 1.0 | 0.00 | 0.00 | 0.00 | 60 | 1016.5 |
| 20260505152036 | 72 | 132 | 1.0 | 2.0 | 0.00 | 0.00 | 0.00 | 60 | 1016.6 |
| 20260505151531 | 72 | 110 | 2.0 | 2.0 | 0.00 | 0.00 | 0.00 | 62 | 1016.6 |
| 20260505151029 | 72 | 97 | 2.0 | 3.0 | 0.00 | 0.00 | 0.00 | 63 | 1016.8 |
| 20260505150525 | 72 | 129 | 1.0 | 1.0 | 0.00 | 0.00 | 0.00 | 65 | 1016.9 |
| 20260505140450 | 65 | 120 | 1.0 | 6.0 | 0.00 | 0.00 | 0.00 | 75 | 1016.7 |
| 20260505124903 | 58 | 124 | 0.0 | 0.0 | 0.00 | 0.00 | 0.00 | 87 | 1016.4 |
| 20260505124401 | 57 | 121 | 0.0 | 0.0 | 0.00 | 0.00 | 0.00 | 89 | 1016.6 |
| 20260505123856 | 57 | 123 | 0.0 | 0.0 | 0.00 | 0.00 | 0.00 | 90 | 1016.4 |
| 20260505123353 | 56 | 122 | 0.0 | 0.0 | 0.00 | 0.00 | 0.00 | 92 | 1016.6 |
| 20260505122849 | 55 | 118 | 0.0 | 0.0 | 0.00 | 0.00 | 0.00 | 94 | 1016.4 |
| 20260505122347 | 54 | 117 | 0.0 | 0.0 | 0.00 | 0.00 | 0.00 | 97 | 1016.5 |
| 20260505121843 | 54 | 117 | 0.0 | 0.0 | 0.00 | 0.00 | 0.00 | 98 | 1016.4 |
| 20260505121340 | 53 | 117 | 0.0 | 0.0 | 0.00 | 0.00 | 0.00 | 98 | 1016.3 |
| 20260505120836 | 52 | 117 | 0.0 | 0.0 | 0.00 | 0.00 | 0.00 | 98 | 1016.3 |
| 20260505120332 | 51 | 117 | 0.0 | 0.0 | 0.00 | 0.00 | 0.00 | 99 | 1016.4 |
| 20260505115831 | 50 | 114 | 0.0 | 0.0 | 0.00 | 0.00 | 0.00 | 99 | 1016.1 |
| 20260505115329 | 50 | 113 | 0.0 | 0.0 | 0.00 | 0.00 | 0.00 | 98 | 1016.2 |
| 20260505114826 | 50 | 114 | 0.0 | 0.0 | 0.00 | 0.00 | 0.00 | 98 | 1016.1 |
| 20260505114323 | 49 | 114 | 0.0 | 0.0 | 0.00 | 0.00 | 0.00 | 98 | 1015.9 |
| 20260505113819 | 49 | 114 | 0.0 | 0.0 | 0.00 | 0.00 | 0.00 | 98 | 1016.2 |
| 20260505113315 | 48 | 113 | 0.0 | 0.0 | 0.00 | 0.00 | 0.00 | 98 | 1016.0 |
| 20260505112811 | 48 | 113 | 0.0 | 0.0 | 0.00 | 0.00 | 0.00 | 98 | 1016.0 |
| 20260505112309 | 48 | 113 | 0.0 | 0.0 | 0.00 | 0.00 | 0.00 | 98 | 1015.7 |
| 20260505111805 | 48 | 114 | 0.0 | 0.0 | 0.00 | 0.00 | 0.00 | 98 | 1015.8 |
| 20260505111300 | 48 | 114 | 0.0 | 0.0 | 0.00 | 0.00 | 0.00 | 98 | 1015.7 |
| 20260505110756 | 48 | 114 | 0.0 | 0.0 | 0.00 | 0.00 | 0.00 | 98 | 1015.6 |
| 20260505110254 | 48 | 114 | 0.0 | 0.0 | 0.00 | 0.00 | 0.00 | 98 | 1015.8 |